This demonstration page uses our WeatherBlox Daily Observations layout. Learn more.

41.55636, -103.73856

Hourly Observations for November 22, 2015

Temp ( °F °C ) Dew Point ( °F °C ) Humidity (%) Winds ( mph kmh ) Pressure ( in mb ) Visibility ( mi km ) Precip ( " mm )
12:53 am 00:53 Clear 10 -12.2 7 -13.9 87 87 NNW 7 11 30.2 1023 10 16.0934 0 0
1:53 am 01:53 Clear 13 -10.6 9 -12.8 84 84 NNW 5 7 30.17 1022 10 16.0934 0 0
2:53 am 02:53 Clear 10 -12.2 7 -13.9 87 87 WNW 6 9 30.17 1022 10 16.0934 0 0
3:53 am 03:53 Clear 11 -11.7 7 -13.9 84 84 NNW 5 7 30.17 1022 10 16.0934 0 0
4:53 am 04:53 Clear 12 -11.1 8 -13.3 84 84 N 6 9 30.18 1022 10 16.0934 0 0
5:53 am 05:53 Clear 15 -9.4 9 -12.8 77 77 NW 5 7 30.19 1022 10 16.0934 0 0
6:53 am 06:53 Sunny 17 -8.3 11 -11.7 77 77 WNW 8 13 30.2 1023 10 16.0934 0 0
7:53 am 07:53 Sunny 21 -6.1 13 -10.6 71 71 NW 10 17 30.19 1023 10 16.0934 0 0
8:53 am 08:53 Sunny 28 -2.2 16 -8.9 60 60 NNW 7 11 30.19 1022 10 16.0934 0 0
9:53 am 09:53 Sunny 36 2.2 17 -8.3 46 46 W 9 15 30.17 1022 10 16.0934 0 0
10:53 am 10:53 Sunny 40 4.4 20 -6.7 45 45 W 8 13 30.15 1021 10 16.0934 0 0
11:53 am 11:53 Sunny 45 7.2 23 -5 42 42 WNW 9 15 30.12 1020 10 16.0934 0 0
12:53 pm 12:53 Sunny 50 10 23 -5 35 35 WNW 12 19 30.1 1019 10 16.0934 0 0
1:53 pm 13:53 Sunny 52 11.1 23 -5 32 32 WNW 10 17 30.07 1018 10 16.0934 0 0
2:53 pm 14:53 Sunny 53 11.7 24 -4.4 32 32 W 10 17 30.09 1019 10 16.0934 0 0
3:53 pm 15:53 Sunny 49 9.4 25 -3.9 39 39 WSW 7 11 30.1 1019 10 16.0934 0 0
4:53 pm 16:53 Clear 46 7.8 25 -3.9 44 44 W 5 7 30.11 1020 10 16.0934 0 0
5:53 pm 17:53 Clear 39 3.9 25 -3.9 57 57 NW 5 7 30.14 1021 10 16.0934 0 0
6:53 pm 18:53 Clear 35 1.7 25 -3.9 67 67 N 9 15 30.16 1021 10 16.0934 0 0
7:53 pm 19:53 Clear 32 0 24 -4.4 73 73 N 8 13 30.16 1021 10 16.0934 0 0
8:53 pm 20:53 Clear 29 -1.7 22 -5.6 75 75 NNE 3 6 30.15 1021 10 16.0934 0 0
9:53 pm 21:53 Clear 27 -2.8 21 -6.1 78 78 NNE 5 7 30.14 1021 10 16.0934 0 0
10:53 pm 22:53 Clear 25 -3.9 21 -6.1 85 85 N 7 11 30.13 1020 10 16.0934 0 0
11:53 pm 23:53 Clear 26 -3.3 20 -6.7 78 78 N 6 9 30.11 1020 10 16.0934 0 0

Powered by AerisWeather